segment_id,date_local,uptime,ped_lft,ped_rgt,ped_total,bike_lft,bike_rgt,bike_total,car_lft,car_rgt,car_total,heavy_lft,heavy_rgt,heavy_total,v85,car_speed0,car_speed10,car_speed20,car_speed30,car_speed40,car_speed50,car_speed60,car_speed70
100024661,2019-10-01 00:00,1.0,,,,21,29,50,,,,,,,
100024661,2019-10-01 01:00,1.0,,,,17,23,40,,,,,,,
100024661,2019-10-01 02:00,1.0,,,,4,15,19,,,,,,,
100024661,2019-10-01 03:00,1.0,,,,4,5,9,,,,,,,
100024661,2019-10-01 04:00,1.0,,,,4,9,13,,,,,,,
100024661,2019-10-01 05:00,1.0,,,,9,19,28,,,,,,,
100024661,2019-10-01 06:00,1.0,,,,29,75,104,,,,,,,
100024661,2019-10-01 07:00,1.0,,,,115,207,322,,,,,,,
100024661,2019-10-01 08:00,1.0,,,,264,463,727,,,,,,,
100024661,2019-10-01 09:00,1.0,,,,202,316,518,,,,,,,
100024661,2019-10-01 10:00,1.0,,,,122,167,289,,,,,,,
100024661,2019-10-01 11:00,1.0,,,,106,109,215,,,,,,,
100024661,2019-10-01 12:00,1.0,,,,117,145,262,,,,,,,
100024661,2019-10-01 13:00,1.0,,,,123,105,228,,,,,,,
100024661,2019-10-01 14:00,1.0,,,,148,105,253,,,,,,,
100024661,2019-10-01 15:00,1.0,,,,244,152,396,,,,,,,
100024661,2019-10-01 16:00,1.0,,,,283,195,478,,,,,,,
100024661,2019-10-01 17:00,1.0,,,,318,251,569,,,,,,,
100024661,2019-10-01 18:00,1.0,,,,435,369,804,,,,,,,
100024661,2019-10-01 19:00,1.0,,,,281,271,552,,,,,,,
100024661,2019-10-01 20:00,1.0,,,,153,136,289,,,,,,,
100024661,2019-10-01 21:00,1.0,,,,93,137,230,,,,,,,
100024661,2019-10-01 22:00,1.0,,,,103,85,188,,,,,,,
100024661,2019-10-01 23:00,1.0,,,,62,77,139,,,,,,,
100024661,2019-10-02 00:00,1.0,,,,43,36,79,,,,,,,
100024661,2019-10-02 01:00,1.0,,,,25,21,46,,,,,,,
100024661,2019-10-02 02:00,1.0,,,,8,12,20,,,,,,,
100024661,2019-10-02 03:00,1.0,,,,8,5,13,,,,,,,
100024661,2019-10-02 04:00,1.0,,,,4,6,10,,,,,,,
100024661,2019-10-02 05:00,1.0,,,,9,19,28,,,,,,,
100024661,2019-10-02 06:00,1.0,,,,17,45,62,,,,,,,
100024661,2019-10-02 07:00,1.0,,,,72,128,200,,,,,,,
100024661,2019-10-02 08:00,1.0,,,,224,383,607,,,,,,,
100024661,2019-10-02 09:00,1.0,,,,236,363,599,,,,,,,
100024661,2019-10-02 10:00,1.0,,,,166,192,358,,,,,,,
100024661,2019-10-02 11:00,1.0,,,,139,127,266,,,,,,,
100024661,2019-10-02 12:00,1.0,,,,149,151,300,,,,,,,
100024661,2019-10-02 13:00,1.0,,,,172,163,335,,,,,,,
100024661,2019-10-02 14:00,1.0,,,,211,174,385,,,,,,,
100024661,2019-10-02 15:00,1.0,,,,264,206,470,,,,,,,
100024661,2019-10-02 16:00,1.0,,,,285,257,542,,,,,,,
100024661,2019-10-02 17:00,1.0,,,,375,275,650,,,,,,,
100024661,2019-10-02 18:00,1.0,,,,424,400,824,,,,,,,
100024661,2019-10-02 19:00,1.0,,,,296,301,597,,,,,,,
100024661,2019-10-02 20:00,1.0,,,,178,157,335,,,,,,,
100024661,2019-10-02 21:00,1.0,,,,112,153,265,,,,,,,
100024661,2019-10-02 22:00,1.0,,,,96,99,195,,,,,,,
100024661,2019-10-02 23:00,1.0,,,,67,82,149,,,,,,,
100024661,2019-10-03 00:00,1.0,,,,52,66,118,,,,,,,
100024661,2019-10-03 01:00,1.0,,,,40,48,88,,,,,,,
100024661,2019-10-03 02:00,1.0,,,,25,20,45,,,,,,,
100024661,2019-10-03 03:00,1.0,,,,20,15,35,,,,,,,
100024661,2019-10-03 04:00,1.0,,,,17,8,25,,,,,,,
100024661,2019-10-03 05:00,1.0,,,,15,7,22,,,,,,,
100024661,2019-10-03 06:00,1.0,,,,12,4,16,,,,,,,
100024661,2019-10-03 07:00,1.0,,,,19,15,34,,,,,,,
100024661,2019-10-03 08:00,1.0,,,,25,30,55,,,,,,,
100024661,2019-10-03 09:00,1.0,,,,46,37,83,,,,,,,
100024661,2019-10-03 10:00,1.0,,,,62,91,153,,,,,,,
100024661,2019-10-03 11:00,1.0,,,,114,63,177,,,,,,,
100024661,2019-10-03 12:00,1.0,,,,131,62,193,,,,,,,
100024661,2019-10-03 13:00,1.0,,,,203,99,302,,,,,,,
100024661,2019-10-03 14:00,1.0,,,,111,137,248,,,,,,,
100024661,2019-10-03 15:00,1.0,,,,126,126,252,,,,,,,
100024661,2019-10-03 16:00,1.0,,,,137,126,263,,,,,,,
100024661,2019-10-03 17:00,1.0,,,,151,131,282,,,,,,,
100024661,2019-10-03 18:00,1.0,,,,159,161,320,,,,,,,
100024661,2019-10-03 19:00,1.0,,,,103,177,280,,,,,,,
100024661,2019-10-03 20:00,1.0,,,,89,114,203,,,,,,,
100024661,2019-10-03 21:00,1.0,,,,71,77,148,,,,,,,
100024661,2019-10-03 22:00,1.0,,,,84,66,150,,,,,,,
100024661,2019-10-03 23:00,1.0,,,,52,61,113,,,,,,,
100024661,2019-10-04 00:00,1.0,,,,49,51,100,,,,,,,
100024661,2019-10-04 01:00,1.0,,,,20,38,58,,,,,,,
100024661,2019-10-04 02:00,1.0,,,,23,19,42,,,,,,,
100024661,2019-10-04 03:00,1.0,,,,13,12,25,,,,,,,
100024661,2019-10-04 04:00,1.0,,,,6,8,14,,,,,,,
100024661,2019-10-04 05:00,1.0,,,,14,19,33,,,,,,,
100024661,2019-10-04 06:00,1.0,,,,34,34,68,,,,,,,
100024661,2019-10-04 07:00,1.0,,,,71,89,160,,,,,,,
100024661,2019-10-04 08:00,1.0,,,,168,287,455,,,,,,,
100024661,2019-10-04 09:00,1.0,,,,193,281,474,,,,,,,
100024661,2019-10-04 10:00,1.0,,,,155,164,319,,,,,,,
100024661,2019-10-04 11:00,1.0,,,,198,145,343,,,,,,,
100024661,2019-10-04 12:00,1.0,,,,175,184,359,,,,,,,
100024661,2019-10-04 13:00,1.0,,,,179,167,346,,,,,,,
100024661,2019-10-04 14:00,1.0,,,,177,174,351,,,,,,,
100024661,2019-10-04 15:00,1.0,,,,192,165,357,,,,,,,
100024661,2019-10-04 16:00,1.0,,,,252,194,446,,,,,,,
100024661,2019-10-04 17:00,1.0,,,,219,188,407,,,,,,,
100024661,2019-10-04 18:00,1.0,,,,159,141,300,,,,,,,
100024661,2019-10-04 19:00,1.0,,,,107,91,198,,,,,,,
100024661,2019-10-04 20:00,1.0,,,,57,60,117,,,,,,,
100024661,2019-10-04 21:00,1.0,,,,43,43,86,,,,,,,
100024661,2019-10-04 22:00,1.0,,,,50,32,82,,,,,,,
100024661,2019-10-04 23:00,1.0,,,,27,32,59,,,,,,,
100024661,2019-10-05 00:00,1.0,,,,27,17,44,,,,,,,
100024661,2019-10-05 01:00,1.0,,,,17,13,30,,,,,,,
100024661,2019-10-05 02:00,1.0,,,,12,6,18,,,,,,,
100024661,2019-10-05 03:00,1.0,,,,10,9,19,,,,,,,
100024661,2019-10-05 04:00,1.0,,,,5,4,9,,,,,,,
100024661,2019-10-05 05:00,1.0,,,,9,5,14,,,,,,,
100024661,2019-10-05 06:00,1.0,,,,9,7,16,,,,,,,
100024661,2019-10-05 07:00,1.0,,,,14,14,28,,,,,,,
100024661,2019-10-05 08:00,1.0,,,,16,25,41,,,,,,,
100024661,2019-10-05 09:00,1.0,,,,58,46,104,,,,,,,
100024661,2019-10-05 10:00,1.0,,,,71,68,139,,,,,,,
100024661,2019-10-05 11:00,1.0,,,,99,72,171,,,,,,,
100024661,2019-10-05 12:00,1.0,,,,105,98,203,,,,,,,
100024661,2019-10-05 13:00,1.0,,,,165,124,289,,,,,,,
100024661,2019-10-05 14:00,1.0,,,,143,162,305,,,,,,,
100024661,2019-10-05 15:00,1.0,,,,180,206,386,,,,,,,
100024661,2019-10-05 16:00,1.0,,,,171,190,361,,,,,,,
100024661,2019-10-05 17:00,1.0,,,,177,196,373,,,,,,,
100024661,2019-10-05 18:00,1.0,,,,172,181,353,,,,,,,
100024661,2019-10-05 19:00,1.0,,,,130,180,310,,,,,,,
100024661,2019-10-05 20:00,1.0,,,,77,111,188,,,,,,,
100024661,2019-10-05 21:00,1.0,,,,79,89,168,,,,,,,
100024661,2019-10-05 22:00,1.0,,,,52,87,139,,,,,,,
100024661,2019-10-05 23:00,1.0,,,,57,61,118,,,,,,,
100024661,2019-10-06 00:00,1.0,,,,58,54,112,,,,,,,
100024661,2019-10-06 01:00,1.0,,,,40,50,90,,,,,,,
100024661,2019-10-06 02:00,1.0,,,,47,21,68,,,,,,,
100024661,2019-10-06 03:00,1.0,,,,33,13,46,,,,,,,
100024661,2019-10-06 04:00,1.0,,,,23,13,36,,,,,,,
100024661,2019-10-06 05:00,1.0,,,,16,13,29,,,,,,,
100024661,2019-10-06 06:00,1.0,,,,18,11,29,,,,,,,
100024661,2019-10-06 07:00,1.0,,,,21,8,29,,,,,,,
100024661,2019-10-06 08:00,1.0,,,,21,25,46,,,,,,,
100024661,2019-10-06 09:00,1.0,,,,59,43,102,,,,,,,
100024661,2019-10-06 10:00,1.0,,,,82,85,167,,,,,,,
100024661,2019-10-06 11:00,1.0,,,,66,85,151,,,,,,,
100024661,2019-10-06 12:00,1.0,,,,112,143,255,,,,,,,
100024661,2019-10-06 13:00,1.0,,,,109,155,264,,,,,,,
100024661,2019-10-06 14:00,1.0,,,,138,181,319,,,,,,,
100024661,2019-10-06 15:00,1.0,,,,154,159,313,,,,,,,
100024661,2019-10-06 16:00,1.0,,,,150,160,310,,,,,,,
100024661,2019-10-06 17:00,1.0,,,,149,155,304,,,,,,,
100024661,2019-10-06 18:00,1.0,,,,132,150,282,,,,,,,
100024661,2019-10-06 19:00,1.0,,,,119,103,222,,,,,,,
100024661,2019-10-06 20:00,1.0,,,,77,92,169,,,,,,,
100024661,2019-10-06 21:00,1.0,,,,66,51,117,,,,,,,
100024661,2019-10-06 22:00,1.0,,,,44,63,107,,,,,,,
100024661,2019-10-06 23:00,1.0,,,,32,48,80,,,,,,,
100024661,2019-10-07 00:00,1.0,,,,30,26,56,,,,,,,
100024661,2019-10-07 01:00,1.0,,,,6,16,22,,,,,,,
100024661,2019-10-07 02:00,1.0,,,,6,8,14,,,,,,,
100024661,2019-10-07 03:00,1.0,,,,3,3,6,,,,,,,
100024661,2019-10-07 04:00,1.0,,,,9,3,12,,,,,,,
100024661,2019-10-07 05:00,1.0,,,,7,34,41,,,,,,,
100024661,2019-10-07 06:00,1.0,,,,46,96,142,,,,,,,
100024661,2019-10-07 07:00,1.0,,,,137,209,346,,,,,,,
100024661,2019-10-07 08:00,1.0,,,,369,669,1038,,,,,,,
100024661,2019-10-07 09:00,1.0,,,,398,599,997,,,,,,,
100024661,2019-10-07 10:00,1.0,,,,200,221,421,,,,,,,
100024661,2019-10-07 11:00,1.0,,,,184,181,365,,,,,,,
100024661,2019-10-07 12:00,1.0,,,,171,146,317,,,,,,,
100024661,2019-10-07 13:00,1.0,,,,166,155,321,,,,,,,
100024661,2019-10-07 14:00,1.0,,,,196,160,356,,,,,,,
100024661,2019-10-07 15:00,1.0,,,,284,248,532,,,,,,,
100024661,2019-10-07 16:00,1.0,,,,345,265,610,,,,,,,
100024661,2019-10-07 17:00,1.0,,,,507,370,877,,,,,,,
100024661,2019-10-07 18:00,1.0,,,,662,497,1159,,,,,,,
100024661,2019-10-07 19:00,1.0,,,,357,351,708,,,,,,,
100024661,2019-10-07 20:00,1.0,,,,179,174,353,,,,,,,
100024661,2019-10-07 21:00,1.0,,,,119,128,247,,,,,,,
100024661,2019-10-07 22:00,1.0,,,,107,101,208,,,,,,,
100024661,2019-10-07 23:00,1.0,,,,54,52,106,,,,,,,
100024661,2019-10-08 00:00,1.0,,,,22,31,53,,,,,,,
100024661,2019-10-08 01:00,1.0,,,,27,23,50,,,,,,,
100024661,2019-10-08 02:00,1.0,,,,5,10,15,,,,,,,
100024661,2019-10-08 03:00,1.0,,,,12,5,17,,,,,,,
100024661,2019-10-08 04:00,1.0,,,,6,3,9,,,,,,,
100024661,2019-10-08 05:00,1.0,,,,16,30,46,,,,,,,
100024661,2019-10-08 06:00,1.0,,,,43,90,133,,,,,,,
100024661,2019-10-08 07:00,1.0,,,,131,245,376,,,,,,,
100024661,2019-10-08 08:00,1.0,,,,320,600,920,,,,,,,
100024661,2019-10-08 09:00,1.0,,,,309,453,762,,,,,,,
100024661,2019-10-08 10:00,1.0,,,,118,150,268,,,,,,,
100024661,2019-10-08 11:00,1.0,,,,106,96,202,,,,,,,
100024661,2019-10-08 12:00,1.0,,,,89,83,172,,,,,,,
100024661,2019-10-08 13:00,1.0,,,,86,77,163,,,,,,,
100024661,2019-10-08 14:00,1.0,,,,123,107,230,,,,,,,
100024661,2019-10-08 15:00,1.0,,,,221,137,358,,,,,,,
100024661,2019-10-08 16:00,1.0,,,,284,188,472,,,,,,,
100024661,2019-10-08 17:00,1.0,,,,432,284,716,,,,,,,
100024661,2019-10-08 18:00,1.0,,,,496,402,898,,,,,,,
100024661,2019-10-08 19:00,1.0,,,,313,281,594,,,,,,,
100024661,2019-10-08 20:00,1.0,,,,146,142,288,,,,,,,
100024661,2019-10-08 21:00,1.0,,,,85,119,204,,,,,,,
100024661,2019-10-08 22:00,1.0,,,,96,90,186,,,,,,,
100024661,2019-10-08 23:00,1.0,,,,52,71,123,,,,,,,
100024661,2019-10-09 00:00,1.0,,,,33,43,76,,,,,,,
100024661,2019-10-09 01:00,1.0,,,,17,15,32,,,,,,,
100024661,2019-10-09 02:00,1.0,,,,10,5,15,,,,,,,
100024661,2019-10-09 03:00,1.0,,,,3,3,6,,,,,,,
100024661,2019-10-09 04:00,1.0,,,,9,5,14,,,,,,,
100024661,2019-10-09 05:00,1.0,,,,19,27,46,,,,,,,
100024661,2019-10-09 06:00,1.0,,,,50,95,145,,,,,,,
100024661,2019-10-09 07:00,1.0,,,,125,230,355,,,,,,,
100024661,2019-10-09 08:00,1.0,,,,379,569,948,,,,,,,
100024661,2019-10-09 09:00,1.0,,,,412,585,997,,,,,,,
100024661,2019-10-09 10:00,1.0,,,,209,245,454,,,,,,,
100024661,2019-10-09 11:00,1.0,,,,189,178,367,,,,,,,
100024661,2019-10-09 12:00,1.0,,,,243,179,422,,,,,,,
100024661,2019-10-09 13:00,1.0,,,,227,149,376,,,,,,,
100024661,2019-10-09 14:00,1.0,,,,87,35,122,,,,,,,
100024661,2019-10-09 15:00,1.0,,,,10,3,13,,,,,,,
100024661,2019-10-09 16:00,1.0,,,,3,6,9,,,,,,,
100024661,2019-10-09 17:00,1.0,,,,4,3,7,,,,,,,
100024661,2019-10-09 18:00,1.0,,,,8,4,12,,,,,,,
100024661,2019-10-09 19:00,1.0,,,,6,10,16,,,,,,,
100024661,2019-10-09 20:00,1.0,,,,4,3,7,,,,,,,
100024661,2019-10-09 21:00,1.0,,,,1,54,55,,,,,,,
100024661,2019-10-09 22:00,1.0,,,,0,61,61,,,,,,,
100024661,2019-10-09 23:00,1.0,,,,0,51,51,,,,,,,
100024661,2019-10-10 00:00,1.0,,,,0,35,35,,,,,,,
100024661,2019-10-10 01:00,1.0,,,,0,13,13,,,,,,,
100024661,2019-10-10 02:00,1.0,,,,0,3,3,,,,,,,
100024661,2019-10-10 03:00,1.0,,,,0,1,1,,,,,,,
100024661,2019-10-10 04:00,1.0,,,,0,1,1,,,,,,,
100024661,2019-10-10 05:00,1.0,,,,0,13,13,,,,,,,
100024661,2019-10-10 06:00,1.0,,,,0,55,55,,,,,,,
100024661,2019-10-10 07:00,1.0,,,,0,104,104,,,,,,,
100024661,2019-10-10 08:00,1.0,,,,376,609,985,,,,,,,
100024661,2019-10-10 09:00,1.0,,,,415,596,1011,,,,,,,
100024661,2019-10-10 10:00,1.0,,,,223,214,437,,,,,,,
100024661,2019-10-10 11:00,1.0,,,,175,182,357,,,,,,,
100024661,2019-10-10 12:00,1.0,,,,196,165,361,,,,,,,
100024661,2019-10-10 13:00,1.0,,,,186,179,365,,,,,,,
100024661,2019-10-10 14:00,1.0,,,,217,198,415,,,,,,,
100024661,2019-10-10 15:00,1.0,,,,327,256,583,,,,,,,
100024661,2019-10-10 16:00,1.0,,,,334,248,582,,,,,,,
100024661,2019-10-10 17:00,1.0,,,,476,366,842,,,,,,,
100024661,2019-10-10 18:00,1.0,,,,589,496,1085,,,,,,,
100024661,2019-10-10 19:00,1.0,,,,389,330,719,,,,,,,
100024661,2019-10-10 20:00,1.0,,,,177,185,362,,,,,,,
100024661,2019-10-10 21:00,1.0,,,,135,153,288,,,,,,,
100024661,2019-10-10 22:00,1.0,,,,127,148,275,,,,,,,
100024661,2019-10-10 23:00,1.0,,,,66,89,155,,,,,,,
100024661,2019-10-11 00:00,1.0,,,,43,43,86,,,,,,,
100024661,2019-10-11 01:00,1.0,,,,34,45,79,,,,,,,
100024661,2019-10-11 02:00,1.0,,,,17,6,23,,,,,,,
100024661,2019-10-11 03:00,1.0,,,,2,11,13,,,,,,,
100024661,2019-10-11 04:00,1.0,,,,9,8,17,,,,,,,
100024661,2019-10-11 05:00,1.0,,,,16,30,46,,,,,,,
100024661,2019-10-11 06:00,1.0,,,,37,91,128,,,,,,,
100024661,2019-10-11 07:00,1.0,,,,107,184,291,,,,,,,
100024661,2019-10-11 08:00,1.0,,,,288,507,795,,,,,,,
100024661,2019-10-11 09:00,1.0,,,,355,479,834,,,,,,,
100024661,2019-10-11 10:00,1.0,,,,156,234,390,,,,,,,
100024661,2019-10-11 11:00,1.0,,,,154,158,312,,,,,,,
100024661,2019-10-11 12:00,1.0,,,,168,170,338,,,,,,,
100024661,2019-10-11 13:00,1.0,,,,196,192,388,,,,,,,
100024661,2019-10-11 14:00,1.0,,,,255,200,455,,,,,,,
100024661,2019-10-11 15:00,1.0,,,,316,265,581,,,,,,,
100024661,2019-10-11 16:00,1.0,,,,361,249,610,,,,,,,
100024661,2019-10-11 17:00,1.0,,,,408,353,761,,,,,,,
100024661,2019-10-11 18:00,1.0,,,,439,365,804,,,,,,,
100024661,2019-10-11 19:00,1.0,,,,274,237,511,,,,,,,
100024661,2019-10-11 20:00,1.0,,,,160,178,338,,,,,,,
100024661,2019-10-11 21:00,1.0,,,,101,140,241,,,,,,,
100024661,2019-10-11 22:00,1.0,,,,103,91,194,,,,,,,
100024661,2019-10-11 23:00,1.0,,,,84,107,191,,,,,,,
100024661,2019-10-12 00:00,1.0,,,,78,85,163,,,,,,,
100024661,2019-10-12 01:00,1.0,,,,56,59,115,,,,,,,
100024661,2019-10-12 02:00,1.0,,,,18,45,63,,,,,,,
100024661,2019-10-12 03:00,1.0,,,,19,23,42,,,,,,,
100024661,2019-10-12 04:00,1.0,,,,24,11,35,,,,,,,
100024661,2019-10-12 05:00,1.0,,,,13,16,29,,,,,,,
100024661,2019-10-12 06:00,1.0,,,,13,17,30,,,,,,,
100024661,2019-10-12 07:00,1.0,,,,29,24,53,,,,,,,
100024661,2019-10-12 08:00,1.0,,,,49,46,95,,,,,,,
100024661,2019-10-12 09:00,1.0,,,,110,78,188,,,,,,,
100024661,2019-10-12 10:00,1.0,,,,131,97,228,,,,,,,
100024661,2019-10-12 11:00,1.0,,,,136,169,305,,,,,,,
100024661,2019-10-12 12:00,1.0,,,,178,202,380,,,,,,,
100024661,2019-10-12 13:00,1.0,,,,209,240,449,,,,,,,
100024661,2019-10-12 14:00,1.0,,,,250,239,489,,,,,,,
100024661,2019-10-12 15:00,1.0,,,,292,326,618,,,,,,,
100024661,2019-10-12 16:00,1.0,,,,196,269,465,,,,,,,
100024661,2019-10-12 17:00,1.0,,,,169,253,422,,,,,,,
100024661,2019-10-12 18:00,1.0,,,,261,259,520,,,,,,,
100024661,2019-10-12 19:00,1.0,,,,202,228,430,,,,,,,
100024661,2019-10-12 20:00,1.0,,,,137,156,293,,,,,,,
100024661,2019-10-12 21:00,1.0,,,,140,140,280,,,,,,,
100024661,2019-10-12 22:00,1.0,,,,86,104,190,,,,,,,
100024661,2019-10-12 23:00,1.0,,,,117,129,246,,,,,,,
100024661,2019-10-13 00:00,1.0,,,,71,101,172,,,,,,,
100024661,2019-10-13 01:00,1.0,,,,72,78,150,,,,,,,
100024661,2019-10-13 02:00,1.0,,,,48,47,95,,,,,,,
100024661,2019-10-13 03:00,1.0,,,,40,33,73,,,,,,,
100024661,2019-10-13 04:00,1.0,,,,31,23,54,,,,,,,
100024661,2019-10-13 05:00,1.0,,,,18,20,38,,,,,,,
100024661,2019-10-13 06:00,1.0,,,,24,18,42,,,,,,,
100024661,2019-10-13 07:00,1.0,,,,20,8,28,,,,,,,
100024661,2019-10-13 08:00,1.0,,,,47,38,85,,,,,,,
100024661,2019-10-13 09:00,1.0,,,,69,60,129,,,,,,,
100024661,2019-10-13 10:00,1.0,,,,87,91,178,,,,,,,
100024661,2019-10-13 11:00,1.0,,,,83,133,216,,,,,,,
100024661,2019-10-13 12:00,1.0,,,,216,154,370,,,,,,,
100024661,2019-10-13 13:00,1.0,,,,180,237,417,,,,,,,
100024661,2019-10-13 14:00,1.0,,,,229,313,542,,,,,,,
100024661,2019-10-13 15:00,1.0,,,,193,305,498,,,,,,,
100024661,2019-10-13 16:00,1.0,,,,267,325,592,,,,,,,
100024661,2019-10-13 17:00,1.0,,,,269,239,508,,,,,,,
100024661,2019-10-13 18:00,1.0,,,,247,236,483,,,,,,,
100024661,2019-10-13 19:00,1.0,,,,143,148,291,,,,,,,
100024661,2019-10-13 20:00,1.0,,,,115,106,221,,,,,,,
100024661,2019-10-13 21:00,1.0,,,,73,118,191,,,,,,,
100024661,2019-10-13 22:00,1.0,,,,69,108,177,,,,,,,
100024661,2019-10-13 23:00,1.0,,,,60,60,120,,,,,,,
100024661,2019-10-14 00:00,1.0,,,,34,33,67,,,,,,,
100024661,2019-10-14 01:00,1.0,,,,13,15,28,,,,,,,
100024661,2019-10-14 02:00,1.0,,,,7,10,17,,,,,,,
100024661,2019-10-14 03:00,1.0,,,,5,4,9,,,,,,,
100024661,2019-10-14 04:00,1.0,,,,7,12,19,,,,,,,
100024661,2019-10-14 05:00,1.0,,,,16,36,52,,,,,,,
100024661,2019-10-14 06:00,1.0,,,,59,117,176,,,,,,,
100024661,2019-10-14 07:00,1.0,,,,147,284,431,,,,,,,
100024661,2019-10-14 08:00,1.0,,,,422,763,1185,,,,,,,
100024661,2019-10-14 09:00,1.0,,,,501,700,1201,,,,,,,
100024661,2019-10-14 10:00,1.0,,,,226,289,515,,,,,,,
100024661,2019-10-14 11:00,1.0,,,,194,195,389,,,,,,,
100024661,2019-10-14 12:00,1.0,,,,183,196,379,,,,,,,
100024661,2019-10-14 13:00,1.0,,,,227,216,443,,,,,,,
100024661,2019-10-14 14:00,1.0,,,,251,219,470,,,,,,,
100024661,2019-10-14 15:00,1.0,,,,378,294,672,,,,,,,
100024661,2019-10-14 16:00,1.0,,,,433,341,774,,,,,,,
100024661,2019-10-14 17:00,1.0,,,,626,463,1089,,,,,,,
100024661,2019-10-14 18:00,1.0,,,,764,648,1412,,,,,,,
100024661,2019-10-14 19:00,1.0,,,,446,414,860,,,,,,,
100024661,2019-10-14 20:00,1.0,,,,239,217,456,,,,,,,
100024661,2019-10-14 21:00,1.0,,,,181,170,351,,,,,,,
100024661,2019-10-14 22:00,1.0,,,,144,127,271,,,,,,,
100024661,2019-10-14 23:00,1.0,,,,91,85,176,,,,,,,
100024661,2019-10-15 00:00,1.0,,,,37,48,85,,,,,,,
100024661,2019-10-15 01:00,1.0,,,,18,23,41,,,,,,,
100024661,2019-10-15 02:00,1.0,,,,6,13,19,,,,,,,
100024661,2019-10-15 03:00,1.0,,,,9,7,16,,,,,,,
100024661,2019-10-15 04:00,1.0,,,,4,11,15,,,,,,,
100024661,2019-10-15 05:00,1.0,,,,18,47,65,,,,,,,
100024661,2019-10-15 06:00,1.0,,,,55,129,184,,,,,,,
100024661,2019-10-15 07:00,1.0,,,,176,321,497,,,,,,,
100024661,2019-10-15 08:00,1.0,,,,482,847,1329,,,,,,,
100024661,2019-10-15 09:00,1.0,,,,512,774,1286,,,,,,,
100024661,2019-10-15 10:00,1.0,,,,235,302,537,,,,,,,
100024661,2019-10-15 11:00,1.0,,,,212,234,446,,,,,,,
100024661,2019-10-15 12:00,1.0,,,,189,215,404,,,,,,,
100024661,2019-10-15 13:00,1.0,,,,257,228,485,,,,,,,
100024661,2019-10-15 14:00,1.0,,,,270,276,546,,,,,,,
100024661,2019-10-15 15:00,1.0,,,,393,320,713,,,,,,,
100024661,2019-10-15 16:00,1.0,,,,484,361,845,,,,,,,
100024661,2019-10-15 17:00,1.0,,,,711,492,1203,,,,,,,
100024661,2019-10-15 18:00,1.0,,,,855,639,1494,,,,,,,
100024661,2019-10-15 19:00,1.0,,,,475,430,905,,,,,,,
100024661,2019-10-15 20:00,1.0,,,,221,256,477,,,,,,,
100024661,2019-10-15 21:00,1.0,,,,194,243,437,,,,,,,
100024661,2019-10-15 22:00,1.0,,,,166,152,318,,,,,,,
100024661,2019-10-15 23:00,1.0,,,,107,104,211,,,,,,,
100024661,2019-10-16 00:00,1.0,,,,48,65,113,,,,,,,
100024661,2019-10-16 01:00,1.0,,,,29,19,48,,,,,,,
100024661,2019-10-16 02:00,1.0,,,,18,13,31,,,,,,,
100024661,2019-10-16 03:00,1.0,,,,5,3,8,,,,,,,
100024661,2019-10-16 04:00,1.0,,,,4,8,12,,,,,,,
100024661,2019-10-16 05:00,1.0,,,,17,27,44,,,,,,,
100024661,2019-10-16 06:00,1.0,,,,58,111,169,,,,,,,
100024661,2019-10-16 07:00,1.0,,,,145,232,377,,,,,,,
100024661,2019-10-16 08:00,1.0,,,,319,598,917,,,,,,,
100024661,2019-10-16 09:00,1.0,,,,266,426,692,,,,,,,
100024661,2019-10-16 10:00,1.0,,,,76,134,210,,,,,,,
100024661,2019-10-16 11:00,1.0,,,,95,101,196,,,,,,,
100024661,2019-10-16 12:00,1.0,,,,110,76,186,,,,,,,
100024661,2019-10-16 13:00,1.0,,,,87,91,178,,,,,,,
100024661,2019-10-16 14:00,1.0,,,,111,87,198,,,,,,,
100024661,2019-10-16 15:00,1.0,,,,181,118,299,,,,,,,
100024661,2019-10-16 16:00,1.0,,,,238,142,380,,,,,,,
100024661,2019-10-16 17:00,1.0,,,,347,196,543,,,,,,,
100024661,2019-10-16 18:00,1.0,,,,484,333,817,,,,,,,
100024661,2019-10-16 19:00,1.0,,,,263,246,509,,,,,,,
100024661,2019-10-16 20:00,1.0,,,,130,160,290,,,,,,,
100024661,2019-10-16 21:00,1.0,,,,120,112,232,,,,,,,
100024661,2019-10-16 22:00,1.0,,,,86,71,157,,,,,,,
100024661,2019-10-16 23:00,1.0,,,,45,48,93,,,,,,,
100024661,2019-10-17 00:00,1.0,,,,35,28,63,,,,,,,
100024661,2019-10-17 01:00,1.0,,,,28,21,49,,,,,,,
100024661,2019-10-17 02:00,1.0,,,,5,10,15,,,,,,,
100024661,2019-10-17 03:00,1.0,,,,14,7,21,,,,,,,
100024661,2019-10-17 04:00,1.0,,,,6,6,12,,,,,,,
100024661,2019-10-17 05:00,1.0,,,,13,30,43,,,,,,,
100024661,2019-10-17 06:00,1.0,,,,49,94,143,,,,,,,
100024661,2019-10-17 07:00,1.0,,,,117,249,366,,,,,,,
100024661,2019-10-17 08:00,1.0,,,,389,699,1088,,,,,,,
100024661,2019-10-17 09:00,1.0,,,,451,590,1041,,,,,,,
100024661,2019-10-17 10:00,1.0,,,,209,233,442,,,,,,,
100024661,2019-10-17 11:00,1.0,,,,155,183,338,,,,,,,
100024661,2019-10-17 12:00,1.0,,,,168,176,344,,,,,,,
100024661,2019-10-17 13:00,1.0,,,,178,201,379,,,,,,,
100024661,2019-10-17 14:00,1.0,,,,242,216,458,,,,,,,
100024661,2019-10-17 15:00,1.0,,,,339,255,594,,,,,,,
100024661,2019-10-17 16:00,1.0,,,,393,308,701,,,,,,,
100024661,2019-10-17 17:00,1.0,,,,551,383,934,,,,,,,
100024661,2019-10-17 18:00,1.0,,,,614,525,1139,,,,,,,
100024661,2019-10-17 19:00,1.0,,,,366,388,754,,,,,,,
100024661,2019-10-17 20:00,1.0,,,,211,216,427,,,,,,,
100024661,2019-10-17 21:00,1.0,,,,173,182,355,,,,,,,
100024661,2019-10-17 22:00,1.0,,,,141,136,277,,,,,,,
100024661,2019-10-17 23:00,1.0,,,,113,134,247,,,,,,,
100024661,2019-10-18 00:00,1.0,,,,64,69,133,,,,,,,
100024661,2019-10-18 01:00,1.0,,,,39,38,77,,,,,,,
100024661,2019-10-18 02:00,1.0,,,,21,23,44,,,,,,,
100024661,2019-10-18 03:00,1.0,,,,12,5,17,,,,,,,
100024661,2019-10-18 04:00,1.0,,,,5,8,13,,,,,,,
100024661,2019-10-18 05:00,1.0,,,,16,25,41,,,,,,,
100024661,2019-10-18 06:00,1.0,,,,43,80,123,,,,,,,
100024661,2019-10-18 07:00,1.0,,,,115,221,336,,,,,,,
100024661,2019-10-18 08:00,1.0,,,,331,617,948,,,,,,,
100024661,2019-10-18 09:00,1.0,,,,414,503,917,,,,,,,
100024661,2019-10-18 10:00,1.0,,,,205,240,445,,,,,,,
100024661,2019-10-18 11:00,1.0,,,,181,185,366,,,,,,,
100024661,2019-10-18 12:00,1.0,,,,205,214,419,,,,,,,
100024661,2019-10-18 13:00,1.0,,,,208,195,403,,,,,,,
100024661,2019-10-18 14:00,1.0,,,,320,265,585,,,,,,,
100024661,2019-10-18 15:00,1.0,,,,355,310,665,,,,,,,
100024661,2019-10-18 16:00,1.0,,,,413,332,745,,,,,,,
100024661,2019-10-18 17:00,1.0,,,,489,384,873,,,,,,,
100024661,2019-10-18 18:00,1.0,,,,509,435,944,,,,,,,
100024661,2019-10-18 19:00,1.0,,,,273,257,530,,,,,,,
100024661,2019-10-18 20:00,1.0,,,,126,106,232,,,,,,,
100024661,2019-10-18 21:00,1.0,,,,107,125,232,,,,,,,
100024661,2019-10-18 22:00,1.0,,,,93,106,199,,,,,,,
100024661,2019-10-18 23:00,1.0,,,,87,86,173,,,,,,,
100024661,2019-10-19 00:00,1.0,,,,78,73,151,,,,,,,
100024661,2019-10-19 01:00,1.0,,,,47,52,99,,,,,,,
100024661,2019-10-19 02:00,1.0,,,,31,42,73,,,,,,,
100024661,2019-10-19 03:00,1.0,,,,12,16,28,,,,,,,
100024661,2019-10-19 04:00,1.0,,,,9,12,21,,,,,,,
100024661,2019-10-19 05:00,1.0,,,,14,14,28,,,,,,,
100024661,2019-10-19 06:00,1.0,,,,20,13,33,,,,,,,
100024661,2019-10-19 07:00,1.0,,,,24,16,40,,,,,,,
100024661,2019-10-19 08:00,1.0,,,,55,32,87,,,,,,,
100024661,2019-10-19 09:00,1.0,,,,105,73,178,,,,,,,
100024661,2019-10-19 10:00,1.0,,,,92,107,199,,,,,,,
100024661,2019-10-19 11:00,1.0,,,,134,114,248,,,,,,,
100024661,2019-10-19 12:00,1.0,,,,155,153,308,,,,,,,
100024661,2019-10-19 13:00,1.0,,,,175,181,356,,,,,,,
100024661,2019-10-19 14:00,1.0,,,,190,197,387,,,,,,,
100024661,2019-10-19 15:00,1.0,,,,192,211,403,,,,,,,
100024661,2019-10-19 16:00,1.0,,,,210,200,410,,,,,,,
100024661,2019-10-19 17:00,1.0,,,,217,220,437,,,,,,,
100024661,2019-10-19 18:00,1.0,,,,213,240,453,,,,,,,